This is the latest recevied weather packets stored in our database for station/object W4DHW-4. If no packets are shown the sender has not sent any weather packets the latest 10 day(s).
| Time | Temp. | Humidity | Pressure | Rain* | Wind** | Luminosity | Snow |
|---|---|---|---|---|---|---|---|
| 1777999977 | 25° C | 39% | 1014 hPa | 0 mm | - | 816 W/m² | - |
| 1777999673 | 25° C | 38% | 1014.1 hPa | 0 mm | - | 778 W/m² | - |
| 1777999371 | 24.44° C | 39% | 1013.9 hPa | 0 mm | - | 730 W/m² | - |
| 1777999069 | 24.44° C | 41% | 1014.1 hPa | 0 mm | - | 770 W/m² | - |
| 1777998767 | 24.44° C | 40% | 1014.2 hPa | 0 mm | - | 789 W/m² | - |
| 1777998464 | 25° C | 41% | 1014.3 hPa | 0 mm | - | 766 W/m² | - |
| 1777998161 | 23.89° C | 42% | 1014.3 hPa | 0 mm | - | 727 W/m² | - |
| 1777997857 | 24.44° C | 42% | 1014.4 hPa | 0 mm | - | 719 W/m² | - |
| 1777997556 | 24.44° C | 42% | 1014.4 hPa | 0 mm | - | 747 W/m² | - |
| 1777997253 | 24.44° C | 41% | 1014.6 hPa | 0 mm | - | 768 W/m² | - |
| 1777996950 | 23.89° C | 41% | 1014.6 hPa | 0 mm | - | 731 W/m² | - |
| 1777996647 | 23.89° C | 42% | 1014.8 hPa | 0 mm | - | 753 W/m² | - |
| 1777996343 | 23.89° C | 43% | 1015 hPa | 0 mm | - | 809 W/m² | - |
| 1777996039 | 23.89° C | 43% | 1014.9 hPa | 0 mm | - | 815 W/m² | - |
| 1777995735 | 23.89° C | 43% | 1015.1 hPa | 0 mm | - | 760 W/m² | - |
| 1777995432 | 23.89° C | 41% | 1014.7 hPa | 0 mm | - | 681 W/m² | - |
| 1777995129 | 23.33° C | 42% | 1015 hPa | 0 mm | - | 715 W/m² | - |
| 1777994826 | 23.33° C | 41% | 1014.9 hPa | 0 mm | - | 769 W/m² | - |
| 1777994522 | 23.89° C | 42% | 1015 hPa | 0 mm | - | 787 W/m² | - |
| 1777994217 | 23.33° C | 42% | 1014.9 hPa | 0 mm | - | 150 W/m² | - |
| 1777993915 | 23.33° C | 43% | 1015 hPa | 0 mm | - | 147 W/m² | - |
| 1777993611 | 23.33° C | 44% | 1014.7 hPa | 0 mm | - | 793 W/m² | - |
| 1777993309 | 23.33° C | 43% | 1014.7 hPa | 0 mm | - | 744 W/m² | - |
| 1777993009 | 23.33° C | 45% | 1015 hPa | 0 mm | - | 768 W/m² | - |
| 1777992708 | 22.78° C | 44% | 1014.8 hPa | 0 mm | - | 710 W/m² | - |
* Rain latest hour (hover to see other rain measurements)
** Current wind speed in m/s (hover to see current wind gust speed)